Lancaster, PA

6:26 PM EST on February 09, 2016 (GMT -0500)
Lancaster

Weather History for KLNS - June, 2013

Change the Weather History Date:

Thursday, June 13, 2013

  Actual Average Record
Temperature  
Mean Temperature 71 °F -  
Max Temperature 82 °F 80 °F 94 °F (1984)
Min Temperature 60 °F 57 °F 42 °F (1979)
Cooling Degree Days 6    
Growing Degree Days 21 (Base 50)    
Moisture  
Dew Point 62 °F    
Average Humidity 82    
Maximum Humidity 96    
Minimum Humidity 52    
Precipitation  
Precipitation 1.01 in - - ()
Sea Level Pressure  
Sea Level Pressure 29.60 in    
Wind  
Wind Speed 8 mph (East)    
Max Wind Speed 20 mph    
Max Gust Speed 25 mph    
Visibility 7 miles    
Events Fog , Rain , Thunderstorm    
Averages and records for this station are not official NWS values.
T = Trace of Precipitation, MM = Missing Value Source: NWS Daily Summary

Daily Weather History Graph

Daily Weather History Graph

Search for Another Location

Airport or City:

Trip Planner

Search our weather history database for the weather conditions in past years. The results will help you decide how hot, cold, wet, or windy it might be!

Date:

Astronomy

Jun. 13, 2013 Rise Set
Actual Time 5:35 AM EDT 8:35 PM EDT
Civil Twilight 5:02 AM EDT 9:08 PM EDT
Nautical Twilight 4:20 AM EDT 9:50 PM EDT
Astronomical Twilight 3:32 AM EDT 10:38 PM EDT
Moon 10:10 AM EDT (6/13) 11:40 PM EDT (6/13)
Length of Visible Light 16h 05m
Length of Day
15h 00m
Waxing Crescent, 21% of the Moon is Illuminated
Jun 13
Waxing Crescent
Jun 16
First Quarter
Jun 23
Full
Jun 30
Last Quarter
Jul 8
New

Hourly Weather History & Observations

Time (EDT) Temp. Heat Index Dew Point Humidity Pressure Visibility Wind Dir Wind Speed Gust Speed Precip Events Conditions
12:53 AM 69.1 °F - 63.0 °F 81% 29.80 in 10.0 mi East 4.6 mph - 0.00 in   Overcast
1:53 AM 68.0 °F - 63.0 °F 84% 29.78 in 10.0 mi ESE 3.5 mph - N/A   Partly Cloudy
2:53 AM 68.0 °F - 62.1 °F 81% 29.77 in 10.0 mi ESE 4.6 mph - N/A   Overcast
3:53 AM 68.0 °F - 61.0 °F 78% 29.74 in 10.0 mi East 5.8 mph - N/A   Mostly Cloudy
4:53 AM 68.0 °F - 63.0 °F 84% 29.72 in 7.0 mi East 8.1 mph - N/A   Mostly Cloudy
5:07 AM 66.2 °F - 62.6 °F 88% 29.72 in 7.0 mi ESE 6.9 mph - N/A Thunderstorm Scattered Clouds
5:25 AM 66.2 °F - 60.8 °F 83% 29.73 in 8.0 mi East 5.8 mph - N/A   Mostly Cloudy
5:53 AM 66.0 °F - 60.1 °F 81% 29.71 in 9.0 mi East 6.9 mph - N/A   Partly Cloudy
6:53 AM 66.0 °F - 59.0 °F 78% 29.68 in 9.0 mi ESE 8.1 mph - N/A   Clear
7:53 AM 66.0 °F - 61.0 °F 84% 29.63 in 7.0 mi ESE 10.4 mph - N/A   Scattered Clouds
8:01 AM 66.2 °F - 60.8 °F 83% 29.64 in 7.0 mi ESE 9.2 mph - N/A Thunderstorm Mostly Cloudy
8:35 AM 66.2 °F - 62.6 °F 88% 29.69 in 2.0 mi NW 10.4 mph - 0.15 in Rain , Thunderstorm Heavy Thunderstorms and Rain
8:37 AM 64.4 °F - 62.6 °F 94% 29.70 in 1.2 mi NW 15.0 mph 18.4 mph 0.32 in Rain , Thunderstorm Heavy Thunderstorms and Rain
8:43 AM 64.4 °F - 62.6 °F 94% 29.63 in 0.5 mi NE 12.7 mph 18.4 mph 0.81 in Fog , Rain , Thunderstorm Heavy Thunderstorms and Rain
8:53 AM 64.0 °F - 63.0 °F 96% 29.67 in 1.0 mi North 12.7 mph 21.9 mph 0.93 in Rain , Thunderstorm Heavy Thunderstorms and Rain
9:00 AM 64.4 °F - 62.6 °F 94% 29.64 in 2.0 mi NNE 10.4 mph - 0.01 in Rain , Thunderstorm Thunderstorms and Rain
9:13 AM 64.4 °F - 62.6 °F 94% 29.65 in 3.0 mi ESE 3.5 mph - 0.02 in Rain Light Rain
9:20 AM 64.4 °F - 62.6 °F 94% 29.63 in 4.0 mi ESE 6.9 mph - 0.02 in Rain Light Rain
9:35 AM 64.4 °F - 62.6 °F 94% 29.62 in 3.0 mi SSE 10.4 mph - 0.02 in Rain Light Rain
9:44 AM 64.4 °F - 62.6 °F 94% 29.60 in 3.0 mi SSE 4.6 mph - 0.02 in Rain Light Rain
9:53 AM 66.9 °F - 64.0 °F 90% 29.60 in 5.0 mi North 4.6 mph - 0.02 in Rain Light Rain
10:08 AM 66.2 °F - 64.4 °F 94% 29.60 in 4.0 mi Calm Calm - 0.00 in Rain Light Rain
10:16 AM 66.2 °F - 64.4 °F 94% 29.61 in 6.0 mi Calm Calm - 0.00 in   Mostly Cloudy
10:25 AM 69.8 °F - 64.4 °F 83% 29.60 in 8.0 mi WSW 3.5 mph - 0.00 in   Mostly Cloudy
10:32 AM 69.8 °F - 64.4 °F 83% 29.59 in 10.0 mi SSW 5.8 mph - 0.00 in   Scattered Clouds
10:53 AM 69.1 °F - 64.9 °F 87% 29.56 in 8.0 mi SSE 4.6 mph - 0.00 in   Partly Cloudy
11:53 AM 73.0 °F - 66.0 °F 79% 29.54 in 9.0 mi ESE 3.5 mph - N/A   Mostly Cloudy
12:53 PM 75.9 °F - 66.9 °F 74% 29.50 in 10.0 mi SE 9.2 mph - N/A   Mostly Cloudy
1:53 PM 80.1 °F 81.5 °F 63.0 °F 56% 29.47 in 10.0 mi WSW 15.0 mph 25.3 mph N/A   Mostly Cloudy
2:53 PM 82.0 °F 83.1 °F 63.0 °F 52% 29.46 in 10.0 mi WSW 18.4 mph 25.3 mph N/A   Clear
3:53 PM 80.1 °F 81.7 °F 64.0 °F 58% 29.45 in 10.0 mi SW 10.4 mph 20.7 mph N/A   Mostly Cloudy
4:53 PM 79.0 °F - 64.0 °F 60% 29.43 in 10.0 mi West 10.4 mph 19.6 mph N/A   Mostly Cloudy
5:53 PM 78.1 °F - 62.1 °F 58% 29.43 in 10.0 mi West 13.8 mph - N/A   Mostly Cloudy
6:53 PM 75.0 °F - 63.0 °F 66% 29.43 in 10.0 mi WNW 11.5 mph - 0.00 in   Mostly Cloudy
7:53 PM 71.1 °F - 60.1 °F 68% 29.47 in 10.0 mi WNW 19.6 mph 24.2 mph N/A   Overcast
8:31 PM 69.8 °F - 59.0 °F 68% 29.48 in 10.0 mi WNW 19.6 mph - 0.00 in Rain Light Rain
8:40 PM 68.0 °F - 60.8 °F 78% 29.49 in 10.0 mi WNW 17.3 mph 24.2 mph 0.00 in Rain Light Rain
8:53 PM 66.0 °F - 62.1 °F 87% 29.49 in 7.0 mi WNW 16.1 mph - 0.01 in Rain Rain
9:53 PM 64.9 °F - 61.0 °F 87% 29.50 in 10.0 mi WNW 13.8 mph 24.2 mph 0.03 in Rain Light Rain
10:29 PM 64.4 °F - 60.8 °F 88% 29.53 in 10.0 mi NW 10.4 mph - 0.01 in Rain Light Rain
10:53 PM 64.9 °F - 59.0 °F 81% 29.53 in 10.0 mi NW 16.1 mph 24.2 mph 0.01 in   Overcast
11:48 PM 60.8 °F - 57.2 °F 88% 29.58 in 4.0 mi NNE 12.7 mph - 0.00 in Rain Light Rain
11:53 PM 60.1 °F - 57.0 °F 90% 29.58 in 6.0 mi NNE 10.4 mph - 0.01 in Rain Light Rain